Simultaneous Nadir Overpasses (SNOs) Predictions

Prediction of SNOs between GOES-16 and METOP-B Satellite Orbit:

Table of predicted SNOs for the next 14.0 days since TLE Epoch: 2/3/2024
Index Date Time (GOES-16) GOES-16 Lat,Lon METOP-B Lat,Lon Distance(km) Time Diff (sec)
1 02/04/2024 14:42:53 0.02, -75.22 0.79, -78.82 409.19 80
2 02/05/2024 14:19:35 0.01, -75.23 -0.33, -73.84 158.76 80
3 02/07/2024 02:41:18 -0.02, -75.21 -0.75, -78.45 369.44 80
4 02/08/2024 02:18:00 -0.01, -75.21 0.38, -73.47 198.72 80
5 02/09/2024 14:39:34 0.03, -75.24 0.62, -78.05 319.28 80
6 02/10/2024 14:16:16 0.03, -75.25 -0.45, -73.06 249.49 80
7 02/12/2024 02:37:59 -0.03, -75.24 -0.56, -77.68 277.29 80
8 02/13/2024 02:14:41 -0.03, -75.25 0.52, -72.69 291.86 80
9 02/14/2024 14:36:15 0.03, -75.30 0.48, -77.27 224.99 80
10 02/15/2024 14:12:58 0.03, -75.31 -0.66, -72.29 344.47 80
11 02/17/2024 02:34:40 -0.03, -75.31 -0.39, -76.90 181.36 80
